Barefoot — WDF2911 — position and weather

sailwx.info

Track history (hours):
 
Tides and Currents Weather Stations Pressure Air Temp Water Temp Dewpoint Dewpoint Depression Visibility Wind Speed Wind Dir Waves Ship Positions

Barefoot

More information available from US FCC via Universal Licensing System and Coast Guard Vessel Documentation Center.

Last reported at 2014-Jul-05 06:13 UTC. Time now 2014-Sep-16 11:31 UTC.
Position S 42°50' E 147°18'.
Warning: this ship's position is months out of date.

Length 13 m.

Type: Sailing vessel. MMSI: 367433390.

Date/timePositionNaut miles runAvg speedWind from/ knotsBaromVisibWave heightAir tempDewpointWater temp
2014-Jul-05 06:13S 42°50' E 147°18'1 1.3
2014-Jul-05 05:33S 42°50' E 147°19'6 5.7
2014-Jul-05 04:33S 42°55' E 147°22'6 5.6
2014-Jul-05 03:33S 43°01' E 147°21'6 6.0
2014-Jul-05 02:33S 43°06' E 147°18'2 1.7
2014-Jul-05 01:27S 43°08' E 147°16'3 2.7
2014-Jul-05 00:21S 43°07' E 147°20'0 0.0
2014-Jul-04 23:16S 43°07' E 147°20'0 0.0
2014-Jul-04 22:30S 43°07' E 147°20'0 0.0
2014-Jul-04 21:33S 43°07' E 147°20'0 0.0
2014-Jul-04 20:03S 43°07' E 147°20'0 0.0
2014-Jul-04 16:21S 43°07' E 147°20'0 0.0
2014-Jul-04 15:30S 43°07' E 147°20'0 0.0
2014-Jul-04 14:25S 43°07' E 147°20'0 0.0
2014-Jul-04 13:33S 43°07' E 147°20'0 0.0
2014-Jul-04 12:31S 43°07' E 147°20'0 0.0
2014-Jul-04 11:06S 43°07' E 147°20'0 0.0
2014-Jul-04 08:33S 43°07' E 147°20'0 0.0
2014-Jul-04 06:30S 43°07' E 147°20'0 0.0
2014-Jul-04 05:33S 43°07' E 147°20'0 0.0
2014-Jul-04 04:31S 43°07' E 147°20'0 0.0
2014-Jul-04 03:32S 43°07' E 147°20'0 0.0
2014-Jul-04 02:03S 43°07' E 147°20'0 0.0
2014-Jul-03 21:18S 43°07' E 147°20'0 0.0
2014-Jul-03 17:30S 43°07' E 147°20'0 0.0
2014-Jul-03 16:33S 43°07' E 147°20'0 0.0
2014-Jul-03 15:33S 43°07' E 147°20'0 0.0
2014-Jul-03 14:21S 43°07' E 147°20'0 0.0
2014-Jul-03 13:21S 43°07' E 147°20'0 0.0
2014-Jul-03 11:27S 43°07' E 147°20'0 0.0
2014-Jul-03 10:27S 43°07' E 147°20'0 0.0
2014-Jul-03 09:09S 43°07' E 147°20'0 0.0
2014-Jul-03 08:21S 43°07' E 147°20'0 0.0
2014-Jul-03 07:33S 43°07' E 147°20'0 0.0
2014-Jul-03 06:12S 43°07' E 147°20'0 0.0
2014-Jul-03 05:27S 43°07' E 147°20'0 0.0
2014-Jul-03 04:30S 43°07' E 147°20'0 0.0
2014-Jul-03 03:33S 43°07' E 147°20'0 0.0
2014-Jul-02 23:33S 43°07' E 147°20'0 0.0
2014-Jul-02 22:30S 43°07' E 147°20'0 0.0
2014-Jul-02 21:12S 43°07' E 147°20'0 0.0
2014-Jul-02 20:33S 43°07' E 147°20'0 0.0
2014-Jul-02 19:33S 43°07' E 147°20'0 0.0
2014-Jul-02 18:33S 43°07' E 147°20'0 0.0
2014-Jul-02 17:27S 43°07' E 147°20'0 0.0
2014-Jul-02 16:33S 43°07' E 147°20'0 0.0
2014-Jul-02 15:30S 43°07' E 147°20'0 0.0
2014-Jul-02 14:18S 43°07' E 147°20'0 0.0
2014-Jul-02 13:32S 43°07' E 147°20'0 0.0
2014-Jul-02 12:28S 43°07' E 147°20'0 0.0
2014-Jul-02 11:30S 43°07' E 147°20'0 0.0
2014-Jul-02 10:33S 43°07' E 147°20'0 0.0
2014-Jul-02 09:30S 43°07' E 147°20'0 0.0
2014-Jul-02 08:33S 43°07' E 147°20'1 0.3
2014-Jul-02 05:32S 43°08' E 147°19'4 4.4
2014-Jul-02 04:32S 43°12' E 147°16'  
2014-Jun-29 15:31S 43°11' E 147°05'  
2014-Jun-26 03:16S 43°11' E 147°05'  
Track history (hours):
 
Tides and Currents Weather Stations Pressure Air Temp Water Temp Dewpoint Dewpoint Depression Visibility Wind Speed Wind Dir Waves Ship Positions

Barefoot

More information available from US FCC via Universal Licensing System and Coast Guard Vessel Documentation Center.

Last reported at 2014-Jul-05 06:13 UTC. Time now 2014-Sep-16 11:31 UTC.
Position S 42°50' E 147°18'.
Warning: this ship's position is months out of date.

Length 13 m.

Type: Sailing vessel. MMSI: 367433390.

Date/timePositionNaut miles runAvg speedWind from/ knotsBaromVisibWave heightAir tempDewpointWater temp
2014-Jul-05 06:13S 42°50' E 147°18'1 1.3
2014-Jul-05 05:33S 42°50' E 147°19'6 5.7
2014-Jul-05 04:33S 42°55' E 147°22'6 5.6
2014-Jul-05 03:33S 43°01' E 147°21'6 6.0
2014-Jul-05 02:33S 43°06' E 147°18'2 1.7
2014-Jul-05 01:27S 43°08' E 147°16'3 2.7
2014-Jul-05 00:21S 43°07' E 147°20'0 0.0
2014-Jul-04 23:16S 43°07' E 147°20'0 0.0
2014-Jul-04 22:30S 43°07' E 147°20'0 0.0
2014-Jul-04 21:33S 43°07' E 147°20'0 0.0
2014-Jul-04 20:03S 43°07' E 147°20'0 0.0
2014-Jul-04 16:21S 43°07' E 147°20'0 0.0
2014-Jul-04 15:30S 43°07' E 147°20'0 0.0
2014-Jul-04 14:25S 43°07' E 147°20'0 0.0
2014-Jul-04 13:33S 43°07' E 147°20'0 0.0
2014-Jul-04 12:31S 43°07' E 147°20'0 0.0
2014-Jul-04 11:06S 43°07' E 147°20'0 0.0
2014-Jul-04 08:33S 43°07' E 147°20'0 0.0
2014-Jul-04 06:30S 43°07' E 147°20'0 0.0
2014-Jul-04 05:33S 43°07' E 147°20'0 0.0
2014-Jul-04 04:31S 43°07' E 147°20'0 0.0
2014-Jul-04 03:32S 43°07' E 147°20'0 0.0
2014-Jul-04 02:03S 43°07' E 147°20'0 0.0
2014-Jul-03 21:18S 43°07' E 147°20'0 0.0
2014-Jul-03 17:30S 43°07' E 147°20'0 0.0
2014-Jul-03 16:33S 43°07' E 147°20'0 0.0
2014-Jul-03 15:33S 43°07' E 147°20'0 0.0
2014-Jul-03 14:21S 43°07' E 147°20'0 0.0
2014-Jul-03 13:21S 43°07' E 147°20'0 0.0
2014-Jul-03 11:27S 43°07' E 147°20'0 0.0
2014-Jul-03 10:27S 43°07' E 147°20'0 0.0
2014-Jul-03 09:09S 43°07' E 147°20'0 0.0
2014-Jul-03 08:21S 43°07' E 147°20'0 0.0
2014-Jul-03 07:33S 43°07' E 147°20'0 0.0
2014-Jul-03 06:12S 43°07' E 147°20'0 0.0
2014-Jul-03 05:27S 43°07' E 147°20'0 0.0
2014-Jul-03 04:30S 43°07' E 147°20'0 0.0
2014-Jul-03 03:33S 43°07' E 147°20'0 0.0
2014-Jul-02 23:33S 43°07' E 147°20'0 0.0
2014-Jul-02 22:30S 43°07' E 147°20'0 0.0
2014-Jul-02 21:12S 43°07' E 147°20'0 0.0
2014-Jul-02 20:33S 43°07' E 147°20'0 0.0
2014-Jul-02 19:33S 43°07' E 147°20'0 0.0
2014-Jul-02 18:33S 43°07' E 147°20'0 0.0
2014-Jul-02 17:27S 43°07' E 147°20'0 0.0
2014-Jul-02 16:33S 43°07' E 147°20'0 0.0
2014-Jul-02 15:30S 43°07' E 147°20'0 0.0
2014-Jul-02 14:18S 43°07' E 147°20'0 0.0
2014-Jul-02 13:32S 43°07' E 147°20'0 0.0
2014-Jul-02 12:28S 43°07' E 147°20'0 0.0
2014-Jul-02 11:30S 43°07' E 147°20'0 0.0
2014-Jul-02 10:33S 43°07' E 147°20'0 0.0
2014-Jul-02 09:30S 43°07' E 147°20'0 0.0
2014-Jul-02 08:33S 43°07' E 147°20'1 0.3
2014-Jul-02 05:32S 43°08' E 147°19'4 4.4
2014-Jul-02 04:32S 43°12' E 147°16'  
2014-Jun-29 15:31S 43°11' E 147°05'  
2014-Jun-26 03:16S 43°11' E 147°05'  

Dump ship's entire track history